STARLINK-1605 (46123 NORAD) Tracking and Keplerian Element Data

This shows tracking and keplerian element data for the satellite.

Feedback or suggestion? Click here.




ElementValue
Catalog46123
NameSTARLINK-1605
Epoch Orbit179
Epoch Day338.66668981
Epoch Year2020
RAAN275.6797
Inclination52.9992
Eccentricity0.0003842
Argument of Perigee4.7124
Mean Anonmoly13.9631
Mean Motion15.62805698
Decay Rate-0.00023218
L11 46123U 20057G 20338.66668981 -.00023218 00000-0 -24780-3 0 9998
L22 46123 52.9992 275.6797 0003842 4.7124 13.9631 15.62805698 1792

Live tracking and technical data element details for STARLINK-1605 (NORAD 46123). STARLINK-1605 can be tracked NOW for your location showing map with azimuth and elevation plus other details from your city location.

Track the satellite on the map from your city or location and see movement details for azimuth, elevation, latitude, longitude, range, height, and movement on the map or in text.







IsCatalogInMostPopularTable: catalog: 46123, numindb: 15
Update: records affected: 1



GetName: 46123 STARLINK-1605

Hit Count: updated at: Sun, 06 Dec 2020 01:40:23 GMT